Location: Muenchen
(48.1800°N, 11.5800°E)
Time: 14:23:33
(UTC+01:00)

Iridium 36 - Visible Passes

Search period start: 28 November 2014 00:00
Search period end: 08 December 2014 00:00
Orbit: 773 x 776 km, 86.4° (Epoch: 27 November)

Date Brightness Start Highest point End Pass type
(mag) Time Alt. Az. Time Alt. Az. Time Alt. Az.
28 Nov 8.3 05:02:57 10° NNE 05:05:58 15° ENE 05:08:58 10° ESE visible
28 Nov 5.5 06:42:06 10° N 06:47:19 81° W 06:52:30 10° S visible
28 Nov 6.5 18:02:42 10° SE 18:06:13 26° E 18:06:13 26° E visible
28 Nov 6.6 19:42:25 10° SSW 19:46:44 42° W 19:46:44 42° W visible
29 Nov 6.2 06:07:37 10° N 06:12:46 58° E 06:17:52 10° SSE visible
29 Nov 7.0 17:29:51 10° ESE 17:32:47 15° ENE 17:33:25 15° ENE visible
29 Nov 5.5 19:07:33 10° S 19:12:45 78° W 19:13:56 54° NNW visible
29 Nov 8.4 20:52:30 10° W 20:54:20 12° WNW 20:54:27 12° WNW visible
30 Nov 7.2 05:33:22 10° NNE 05:38:04 33° ENE 05:42:44 10° SE visible
30 Nov 5.4 18:33:10 10° SSE 18:38:15 60° E 18:41:17 24° NNE visible
30 Nov 7.8 20:15:33 10° WSW 20:19:21 20° WNW 20:21:50 15° NW visible
01 Dec 8.0 04:59:28 10° NNE 05:03:14 20° ENE 05:06:58 10° ESE visible
01 Dec 5.5 06:39:13 10° N 06:44:21 62° W 06:49:27 10° SSW visible
01 Dec 6.1 17:59:16 10° SSE 18:03:53 34° E 18:08:32 10° NNE visible
01 Dec 7.0 19:39:49 10° SW 19:44:31 34° WNW 19:49:15 10° NNW visible
02 Dec 8.5 04:26:34 10° NE 04:28:14 11° ENE 04:29:54 10° E visible
02 Dec 5.7 06:04:38 10° N 06:09:51 76° E 06:15:02 10° S visible
02 Dec 6.7 17:25:58 10° ESE 17:29:39 20° ENE 17:33:21 10° NNE visible
02 Dec 6.0 19:04:43 10° SSW 19:09:50 60° W 19:14:59 10° N visible
03 Dec 6.7 05:30:15 10° N 05:35:13 43° E 05:40:09 10° SSE visible
03 Dec 7.3 16:54:00 10° E 16:55:33 11° ENE 16:57:06 10° NE visible
03 Dec 5.4 18:30:06 10° S 18:35:16 79° E 18:40:29 10° N visible
03 Dec 8.2 20:13:31 10° WSW 20:16:36 16° WNW 20:19:43 10° NNW visible
04 Dec 7.6 04:56:09 10° NNE 05:00:27 25° ENE 05:04:42 10° SE visible
04 Dec 5.8 06:36:22 10° NNW 06:41:20 47° W 06:46:17 10° SSW visible
04 Dec 5.8 17:55:57 10° SSE 18:00:51 44° E 18:05:46 10° NNE visible
04 Dec 7.5 19:37:21 10° SW 19:41:42 27° WNW 19:46:04 10° NNW visible
05 Dec 8.3 04:22:35 10° NNE 04:25:31 15° ENE 04:28:27 10° ESE visible
05 Dec 5.4 06:01:41 10° N 06:06:54 83° W 06:12:05 10° S visible
05 Dec 6.4 17:22:20 10° SE 17:26:33 26° E 17:30:46 10° NNE visible
05 Dec 6.5 19:01:59 10° SSW 19:06:56 45° W 19:11:56 10° N visible
06 Dec 6.1 05:27:12 10° N 05:32:20 57° E 05:37:26 10° SSE visible
06 Dec 6.7 07:08:44 10° NNW 07:12:33 21° WNW 07:16:21 10° SW visible
06 Dec 5.6 18:27:08 10° S 18:32:19 80° W 18:37:33 10° N visible
06 Dec 8.5 20:11:55 10° W 20:13:53 12° WNW 20:15:52 10° NW visible
07 Dec 7.2 04:52:57 10° NNE 04:57:37 32° ENE 05:02:16 10° SE visible
07 Dec 6.1 06:33:35 10° NNW 06:38:18 36° W 06:42:59 10° SSW visible
07 Dec 5.5 17:52:45 10° SSE 17:57:49 59° E 18:02:56 10° N visible
07 Dec 7.9 19:35:03 10° WSW 19:38:54 21° WNW 19:42:47 10° NNW visible
